This is the latest recevied weather packets stored in our database for station/object OE3APM-13. If no packets are shown the sender has not sent any weather packets the latest 10 day(s).
| Time | Temp. | Humidity | Pressure | Rain* | Wind** | Luminosity | Snow |
|---|---|---|---|---|---|---|---|
| 1777452126 | 10.56° C | 35% | 1024 hPa | 0 mm | - | 758 W/m² | - |
| 1777451825 | 10.56° C | 35% | 1024 hPa | 0 mm | - | 749 W/m² | - |
| 1777451527 | 10.56° C | 39% | 1024 hPa | 0 mm | - | 738 W/m² | - |
| 1777451226 | 10.56° C | 37% | 1024 hPa | 0 mm | - | 728 W/m² | - |
| 1777450928 | 10.56° C | 36% | 1024 hPa | 0 mm | - | 722 W/m² | - |
| 1777450626 | 10° C | 39% | 1024 hPa | 0 mm | - | 712 W/m² | - |
| 1777450327 | 10° C | 38% | 1023.9 hPa | 0 mm | - | 698 W/m² | - |
| 1777450025 | 10° C | 36% | 1023.9 hPa | 0 mm | - | 689 W/m² | - |
| 1777449726 | 10° C | 39% | 1023.9 hPa | 0 mm | - | 677 W/m² | - |
| 1777449425 | 10° C | 37% | 1023.9 hPa | 0 mm | - | 664 W/m² | - |
| 1777449125 | 10° C | 38% | 1024 hPa | 0 mm | - | 654 W/m² | - |
| 1777448825 | 10° C | 38% | 1023.7 hPa | 0 mm | - | 643 W/m² | - |
| 1777448528 | 9.44° C | 38% | 1023.9 hPa | 0 mm | - | 633 W/m² | - |
| 1777448226 | 9.44° C | 38% | 1023.9 hPa | 0 mm | - | 619 W/m² | - |
| 1777447924 | 9.44° C | 38% | 1023.9 hPa | 0 mm | - | 606 W/m² | - |
| 1777447624 | 9.44° C | 39% | 1023.7 hPa | 0 mm | - | 596 W/m² | - |
| 1777447321 | 9.44° C | 41% | 1023.7 hPa | 0 mm | - | 582 W/m² | - |
| 1777447021 | 9.44° C | 41% | 1023.7 hPa | 0 mm | - | 570 W/m² | - |
| 1777446723 | 8.89° C | 39% | 1023.7 hPa | 0 mm | - | 557 W/m² | - |
| 1777446422 | 8.89° C | 41% | 1023.7 hPa | 0 mm | - | 543 W/m² | - |
| 1777446121 | 8.33° C | 42% | 1023.6 hPa | 0 mm | - | 529 W/m² | - |
| 1777445822 | 8.33° C | 42% | 1023.7 hPa | 0 mm | - | 515 W/m² | - |
| 1777445521 | 8.33° C | 42% | 1023.7 hPa | 0 mm | - | 501 W/m² | - |
| 1777445222 | 8.33° C | 43% | 1023.6 hPa | 0 mm | - | 487 W/m² | - |
| 1777444923 | 8.33° C | 44% | 1023.7 hPa | 0 mm | - | 471 W/m² | - |
* Rain latest hour (hover to see other rain measurements)
** Current wind speed in m/s (hover to see current wind gust speed)